This demonstration page uses our WeatherBlox Daily Observations layout. Learn more.

Left ArrowRight Arrow

39.01783, -85.05884

Hourly Observations for October 11, 2019

Temp ( °F °C ) Dew Point ( °F °C ) Humidity (%) Winds ( mph kmh ) Pressure ( in mb ) Visibility ( mi km ) Precip ( " mm )
12:52 am 00:52 Mostly Cloudy 68 20 55 12.8 63 63 SE 9 15 30.04 1017 10 16 0.00 0.00
1:52 am 01:52 Mostly Cloudy 68 20 56 13.3 65 65 SSE 10 17 30.03 1017 10 16 0.00 0.00
2:52 am 02:52 Mostly Cloudy 67 19.4 56 13.3 68 68 S 7 11 30.02 1017 10 16 0.00 0.00
3:52 am 03:52 Mostly Cloudy 66 18.9 55 12.8 68 68 SSE 7 11 30.00 1016 10 16 0.00 0.00
4:52 am 04:52 Partly Cloudy 65 18.3 55 12.8 70 70 SSE 5 7 30.01 1016 10 16 0.00 0.00
5:52 am 05:52 Mostly Cloudy 65 18.3 56 13.3 73 73 SSE 7 11 30.00 1016 10 16 0.00 0.00
6:52 am 06:52 Cloudy with Light Rain 65 18.3 56 13.3 73 73 SSE 8 13 30.01 1016 10 16 0.00 0.00
7:52 am 07:52 Cloudy with Light Rain 65 18.3 57 13.9 76 76 S 8 13 30.01 1016 10 16 0.00 0.00
8:52 am 08:52 Mostly Cloudy 66 18.9 57 13.9 73 73 S 10 17 30.02 1017 10 16 0.00 0.00
9:52 am 09:52 Mostly Cloudy 69 20.6 56 13.3 63 63 S 12 19 30.02 1017 10 16 0.00 0.00
10:52 am 10:52 Cloudy 69 20.6 56 13.3 63 63 S 13 20 30.02 1017 10 16 0.00 0.00
11:52 am 11:52 Cloudy 74 23.3 57 13.9 56 56 SW 17 28 30.01 1016 10 16 0.00 0.00
12:52 pm 12:52 Cloudy 75 23.9 57 13.9 54 54 SSW 12 19 30.00 1016 10 16 0.00 0.00
1:52 pm 13:52 Cloudy with Light Rain 73 22.8 58 14.4 59 59 SSW 18 30 29.99 1016 10 16 0.00 0.00
2:52 pm 14:52 Cloudy with Light Rain 66 18.9 62 16.7 87 87 S 12 19 29.97 1015 6 10 0.07 1.78
3:52 pm 15:52 Cloudy 69 20.6 61 16.1 76 76 S 8 13 29.94 1014 10 16 0.01 0.25
4:52 pm 16:52 Cloudy with Light Rain 71 21.7 60 15.6 68 68 S 10 17 29.92 1013 10 16 0.00 0.00
5:52 pm 17:52 Cloudy 71 21.7 59 15 66 66 S 8 13 29.91 1013 10 16 0.00 0.00
6:52 pm 18:52 Cloudy 70 21.1 59 15 68 68 SSW 7 11 29.90 1013 10 16 0.00 0.00
7:52 pm 19:52 Cloudy 71 21.7 58 14.4 63 63 SW 7 11 29.91 1013 10 16 0.00 0.00
8:52 pm 20:52 Cloudy 70 21.1 59 15 68 68 SW 12 19 29.92 1013 10 16 0.00 0.00
9:18 pm 21:18 Cloudy with Light Rain 67 19.4 61 16.1 81 81 WNW 22 35 29.93 1014 9 14 0.00 0.00
9:26 pm 21:26 Cloudy with Light Rain 58 14.4 55 12.8 90 90 WNW 24 39 29.97 1015 4 6 0.00 0.00
9:45 pm 21:45 Cloudy with Light Rain 55 12.8 52 11.1 90 90 WNW 16 26 29.99 1016 10 16 0.00 0.00
9:49 pm 21:49 Cloudy with Light Rain 55 13 52 11 88 88 WNW 22 35 30.00 1016 10 16 0.00 0.00
9:52 pm 21:52 Cloudy 54 12.2 51 10.6 90 90 WNW 21 33 29.98 1015 10 16 0.00 0.00
10:52 pm 22:52 Cloudy with Light Rain 50 10 47 8.3 89 89 NW 20 31 30.02 1017 4 6 0.00 0.00
11:14 pm 23:14 Cloudy with Light Rain 49 9.4 45 7.2 86 86 NW 18 30 30.05 1018 10 16 0.01 0.25
11:24 pm 23:24 Cloudy with Rain 48 8.9 45 7.2 89 89 NW 12 19 30.05 1018 4 6 0.03 0.76
11:32 pm 23:32 Cloudy with Light Rain 49 9.4 45 7.2 86 86 NW 14 22 30.06 1018 6 10 0.04 1.02
11:52 pm 23:52 Cloudy with Light Rain 47 8.3 44 6.7 90 90 NW 16 26 30.04 1017 7 11 0.05 1.27

Powered by AerisWeather